Location: Hackberry
(29.5783°N, 96.8797°W)
Time: 13:32:14
(UTC+00:00)

Vanguard 2 Rocket - Pass Details

Date: 17 November 2024
Orbit: 554 x 3296 km, 32.9° (Epoch: 30 November)

Event Time Altitude Azimuth Distance (km) Brightness Sun altitude
Exits shadow 09:20:20 15° 160° (SSE) 3,208 9.7 -46.3°
Maximum altitude 09:24:30 20° 129° (SE) 3,325 10.0 -45.4°
Drops below altitude 10° 09:33:05 10° 89° (E) 4,946 11.2 -43.5°
Sets 09:39:21 0° 76° (ENE) 6,472 12.0 -42.2°
